Meteo pe oră la Bacău

Astăzi, 17 Aprilie, Sâmbătă

Timp Temperatura Precipitaţii Vânt Presiune Umiditate
00:00 +5°C° 0 mm 1 m/s 748 mmHg 67%
01:00 +5°C° 0 mm 1 m/s 748 mmHg 69%
02:00 +4°C° 0 mm 1 m/s 748 mmHg 71%
03:00 +4°C° 0 mm 1 m/s 748 mmHg 72%
04:00 +3°C° 0 mm 1 m/s 748 mmHg 74%
05:00 +3°C° 0 mm 1 m/s 749 mmHg 76%
06:00 +5°C° 0 mm 1 m/s 749 mmHg 71%
07:00 +6°C° 0 mm 1 m/s 749 mmHg 65%
08:00 +7°C° 0 mm 0 m/s 749 mmHg 60%
09:00 +9°C° 0 mm 1 m/s 749 mmHg 55%
10:00 +11°C° 0 mm 1 m/s 748 mmHg 50%
11:00 +12°C° 0 mm 2 m/s 748 mmHg 46%
12:00 +13°C° 0 mm 2 m/s 748 mmHg 44%
13:00 +14°C° 0 mm 2 m/s 747 mmHg 42%
14:00 +13°C° 0 mm 3 m/s 747 mmHg 41%
15:00 +13°C° 0 mm 3 m/s 747 mmHg 42%
16:00 +13°C° 0 mm 3 m/s 747 mmHg 42%
17:00 +13°C° 0 mm 3 m/s 747 mmHg 43%
18:00 +13°C° 0 mm 2 m/s 747 mmHg 48%
19:00 +12°C° 0 mm 2 m/s 747 mmHg 52%
20:00 +10°C° 0 mm 1 m/s 747 mmHg 56%
21:00 +10°C° 0 mm 1 m/s 747 mmHg 58%
22:00 +10°C° 0 mm 1 m/s 747 mmHg 59%
23:00 +9°C° 0 mm 1 m/s 747 mmHg 61%

Mâine, 18 Aprilie, Duminică

Timp Temperatura Precipitaţii Vânt Presiune Umiditate
00:00 +8°C° 0 mm 1 m/s 747 mmHg 66%
01:00 +7°C° 0 mm 1 m/s 748 mmHg 72%
02:00 +7°C° 0 mm 1 m/s 748 mmHg 77%
03:00 +6°C° 0 mm 1 m/s 747 mmHg 79%
04:00 +6°C° 0 mm 1 m/s 747 mmHg 81%
05:00 +6°C° 0 mm 1 m/s 747 mmHg 83%
06:00 +7°C° 0 mm 1 m/s 747 mmHg 79%
07:00 +8°C° 0 mm 1 m/s 747 mmHg 75%
08:00 +9°C° 0 mm 1 m/s 747 mmHg 71%
09:00 +10°C° 0 mm 1 m/s 747 mmHg 63%
10:00 +12°C° 0 mm 2 m/s 747 mmHg 56%
11:00 +12°C° 0 mm 3 m/s 747 mmHg 48%
12:00 +12°C° 0 mm 3 m/s 746 mmHg 49%
13:00 +12°C° 0 mm 3 m/s 746 mmHg 49%
14:00 +12°C° 0 mm 3 m/s 746 mmHg 49%
15:00 +13°C° 0.1 mm 2 m/s 746 mmHg 55%
16:00 +12°C° 0.1 mm 1 m/s 746 mmHg 62%
17:00 +11°C° 0.1 mm 1 m/s 746 mmHg 68%
18:00 +10°C° 0.1 mm 1 m/s 747 mmHg 73%
19:00 +10°C° 0.1 mm 1 m/s 747 mmHg 77%
20:00 +9°C° 0.1 mm 1 m/s 747 mmHg 81%
21:00 +9°C° 0.1 mm 1 m/s 747 mmHg 83%
22:00 +8°C° 0.1 mm 0 m/s 747 mmHg 84%
23:00 +8°C° 0.1 mm 0 m/s 747 mmHg 86%

Poimâine, 19 Aprilie, Luni

Timp Temperatura Precipitaţii Vânt Presiune Umiditate
00:00 +8°C° 0 mm 0 m/s 747 mmHg 86%
01:00 +8°C° 0 mm 0 m/s 746 mmHg 87%
02:00 +8°C° 0 mm 0 m/s 746 mmHg 88%
03:00 +8°C° 0 mm 0 m/s 746 mmHg 88%
04:00 +8°C° 0 mm 0 m/s 746 mmHg 89%
05:00 +7°C° 0 mm 0 m/s 746 mmHg 89%
06:00 +9°C° 0 mm 1 m/s 746 mmHg 87%
07:00 +9°C° 0 mm 1 m/s 746 mmHg 85%
08:00 +10°C° 0 mm 1 m/s 746 mmHg 82%
09:00 +10°C° 0.1 mm 1 m/s 745 mmHg 81%
10:00 +9°C° 0.1 mm 2 m/s 745 mmHg 80%
11:00 +9°C° 0.1 mm 2 m/s 745 mmHg 79%
12:00 +9°C° 0.1 mm 2 m/s 745 mmHg 79%
13:00 +9°C° 0.1 mm 2 m/s 745 mmHg 79%
14:00 +9°C° 0.1 mm 2 m/s 744 mmHg 79%
15:00 +10°C° 0 mm 2 m/s 744 mmHg 79%
16:00 +10°C° 0 mm 2 m/s 744 mmHg 78%
17:00 +10°C° 0 mm 2 m/s 743 mmHg 77%
18:00 +9°C° 0 mm 2 m/s 743 mmHg 81%
19:00 +8°C° 0 mm 3 m/s 743 mmHg 84%
20:00 +8°C° 0 mm 3 m/s 743 mmHg 87%
21:00 +8°C° 0.3 mm 3 m/s 742 mmHg 88%
22:00 +8°C° 0.3 mm 3 m/s 741 mmHg 90%
23:00 +8°C° 0.3 mm 3 m/s 741 mmHg 91%

20 Aprilie, Marţi

Timp Temperatura Precipitaţii Vânt Presiune Umiditate
00:00 +7°C° 1.2 mm 4 m/s 741 mmHg 92%
01:00 +7°C° 1.2 mm 4 m/s 740 mmHg 93%
02:00 +6°C° 1.2 mm 4 m/s 740 mmHg 94%
03:00 +6°C° 1.1 mm 5 m/s 739 mmHg 93%
04:00 +5°C° 1.1 mm 6 m/s 739 mmHg 93%
05:00 +5°C° 1.1 mm 6 m/s 739 mmHg 92%
06:00 +5°C° 0.8 mm 6 m/s 739 mmHg 92%
07:00 +5°C° 0.8 mm 6 m/s 739 mmHg 91%
08:00 +5°C° 0.8 mm 6 m/s 739 mmHg 91%
09:00 +7°C° 0.2 mm 6 m/s 739 mmHg 83%
10:00 +8°C° 0.2 mm 7 m/s 740 mmHg 75%
11:00 +9°C° 0.2 mm 7 m/s 740 mmHg 68%
12:00 +10°C° 0 mm 6 m/s 740 mmHg 64%
13:00 +10°C° 0 mm 6 m/s 740 mmHg 60%
14:00 +11°C° 0 mm 6 m/s 740 mmHg 56%
15:00 +12°C° 0 mm 5 m/s 740 mmHg 58%
16:00 +12°C° 0 mm 3 m/s 740 mmHg 60%
17:00 +12°C° 0 mm 2 m/s 740 mmHg 63%
18:00 +10°C° 0.1 mm 2 m/s 741 mmHg 68%
19:00 +10°C° 0.1 mm 2 m/s 742 mmHg 74%
20:00 +9°C° 0.1 mm 2 m/s 742 mmHg 79%
21:00 +8°C° 0 mm 2 m/s 742 mmHg 80%
22:00 +9°C° 0 mm 1 m/s 743 mmHg 82%
23:00 +9°C° 0 mm 1 m/s 743 mmHg 83%

21 Aprilie, Miercuri

Timp Temperatura Precipitaţii Vânt Presiune Umiditate
00:00 +9°C° 0 mm 1 m/s 743 mmHg 83%
01:00 +9°C° 0 mm 1 m/s 743 mmHg 83%
02:00 +9°C° 0 mm 1 m/s 743 mmHg 82%
03:00 +9°C° 0 mm 1 m/s 744 mmHg 82%
04:00 +9°C° 0 mm 1 m/s 744 mmHg 82%
05:00 +8°C° 0 mm 1 m/s 744 mmHg 82%
06:00 +9°C° 0 mm 1 m/s 745 mmHg 79%
07:00 +10°C° 0 mm 1 m/s 745 mmHg 76%
08:00 +11°C° 0 mm 1 m/s 745 mmHg 73%
09:00 +11°C° 0.2 mm 1 m/s 746 mmHg 69%
10:00 +12°C° 0.2 mm 1 m/s 746 mmHg 65%
11:00 +13°C° 0.2 mm 1 m/s 746 mmHg 61%
12:00 +14°C° 0.2 mm 1 m/s 746 mmHg 57%
13:00 +15°C° 0.2 mm 1 m/s 746 mmHg 53%
14:00 +16°C° 0.2 mm 2 m/s 746 mmHg 49%
15:00 +16°C° 0 mm 2 m/s 746 mmHg 49%
16:00 +16°C° 0 mm 2 m/s 746 mmHg 50%
17:00 +16°C° 0 mm 2 m/s 746 mmHg 51%
18:00 +14°C° 0 mm 2 m/s 746 mmHg 57%
19:00 +13°C° 0 mm 2 m/s 747 mmHg 63%
20:00 +10°C° 0 mm 2 m/s 747 mmHg 70%
21:00 +10°C° 0 mm 2 m/s 748 mmHg 72%
22:00 +10°C° 0 mm 1 m/s 748 mmHg 74%
23:00 +9°C° 0 mm 1 m/s 748 mmHg 76%

22 Aprilie, Joi

Timp Temperatura Precipitaţii Vânt Presiune Umiditate
00:00 +9°C° 0 mm 1 m/s 748 mmHg 77%
01:00 +8°C° 0 mm 1 m/s 749 mmHg 78%
02:00 +8°C° 0 mm 1 m/s 749 mmHg 80%
03:00 +7°C° 0 mm 1 m/s 749 mmHg 80%
04:00 +7°C° 0 mm 1 m/s 749 mmHg 80%
05:00 +7°C° 0 mm 1 m/s 749 mmHg 81%
06:00 +9°C° 0 mm 1 m/s 749 mmHg 75%
07:00 +10°C° 0 mm 1 m/s 750 mmHg 69%
08:00 +12°C° 0 mm 1 m/s 750 mmHg 63%
09:00 +13°C° 0 mm 1 m/s 750 mmHg 58%
10:00 +15°C° 0 mm 1 m/s 750 mmHg 53%
11:00 +17°C° 0 mm 2 m/s 749 mmHg 47%
12:00 +17°C° 0 mm 2 m/s 749 mmHg 45%
13:00 +18°C° 0 mm 2 m/s 749 mmHg 42%
14:00 +19°C° 0 mm 3 m/s 748 mmHg 40%
15:00 +19°C° 0 mm 3 m/s 748 mmHg 43%
16:00 +18°C° 0 mm 3 m/s 748 mmHg 45%
17:00 +18°C° 0 mm 3 m/s 748 mmHg 48%
18:00 +16°C° 0.1 mm 2 m/s 748 mmHg 54%
19:00 +14°C° 0.1 mm 2 m/s 748 mmHg 61%
20:00 +13°C° 0.1 mm 1 m/s 748 mmHg 67%
21:00 +12°C° 0 mm 1 m/s 748 mmHg 68%
22:00 +11°C° 0 mm 1 m/s 748 mmHg 69%
23:00 +11°C° 0 mm 1 m/s 748 mmHg 70%
Arată mai mult

Formular de consimțământ

Meteoprog și furnizorii noștri de servicii pot stoca și accesa date personale, precum cookies, identificatori de dispozitiv sau alte tehnologii similare pe dispozitivul dumneavoastră și procesa astfel de date pentru a personaliza conținutul și reclamele, dar și pentru a oferi caracteristici de social media și pentru a analiza traficul.

  • Stocarea și/sau accesarea informațiilor pe dispozitivul dumneavoastră

    Cookies, identificatori de dispozitiv sau alte informații pot fi stocate sau accesate pe dispozitiv în scopurile indicate mai sus.

  • Reclame și conținut personalizat, evaluarea reclamelor și a conținutului, informații despre audiențe și dezvoltarea produselor

    Reclamele și conținutul pot fi personalizate pe baza unui profil. Pot fi adăugate date suplimentare pentru a personaliza mai bine reclamele și conținutul. Performanța reclamelor și conținutului poate fi măsurată. Pot fi obținute informații despre utilizatorii care au văzut reclamele și conținutul. Aceste date pot fi utilizate pentru a dezvolta sau îmbunătăți experiența utilizatorilor, sistemele și software-ul.

Dând clic pe ‘Sunt de acord’, permiteți utilizarea cookie-urilor menționate, a identificatorilor de dispozitiv, balizelor web sau altor tehnologii similare. Setările pot fi modificate din browser-ul dispozitivului dumneavoastră.

În anumite scopuri, interesele legitime pot prima asupra consimțământului. Puteți citi mai multe informații în acest sens în Politica privind Confidențialitatea Datelor și Cookie.